Probability
1 1 0 1 2 2 1 0 0 0 0 0 0 0 1 3 3 1 2 6 7 4 2 2 3 4 4 4 4 4 4 4 4 4 4 4 3 2 1 1 1 0 0 0 0 1 0 0 0
1 0 0 1 3 2 1 0 0 0 0 0 0 1 2 2 2 2 3 4 4 2 1 2 4 4 5 6 6 6 6 6 6 6 6 5 5 4 3 2 2 1 1 1 1 2 1 1 1
2 1 1 1 2 1 1 1 0 0 0 0 2 3 3 2 2 2 2 2 1 1 1 2 5 6 6 6 7 8 8 8 7 6 6 6 6 6 5 4 4 3 3 3 3 3 3 2 2
5 4 2 1 0 0 0 1 1 1 2 3 7 10 7 3 3 3 2 2 2 2 2 4 6 6 6 6 7 7 8 8 7 7 6 6 6 6 6 6 6 6 6 5 4 4 4 3 3
6 5 2 0 0 0 0 1 2 4 6 8 14 16 10 5 4 3 4 4 5 7 8 7 7 7 7 6 6 7 7 7 7 7 6 6 6 6 6 6 6 6 6 6 6 6 5 4 4
5 3 1 0 0 0 1 2 4 6 8 12 19 20 14 7 4 3 3 5 9 14 13 9 8 8 7 6 6 6 6 7 7 7 6 6 6 6 6 7 7 7 7 7 6 6 6 6 6
3 2 0 0 0 0 1 2 4 7 10 14 21 26 20 10 5 3 2 4 11 16 15 10 7 7 7 7 7 6 6 6 6 6 7 7 7 6 6 7 8 8 7 7 6 6 6 6 6
1 0 0 0 0 1 2 3 4 9 16 23 32 37 31 20 9 4 4 9 16 20 17 11 8 7 7 8 8 8 7 6 7 7 7 7 7 7 8 9 10 10 8 8 7 7 7 6 6
0 0 0 0 1 3 5 5 5 12 27 43 52 51 42 28 15 9 12 22 29 28 21 15 12 10 9 12 14 12 9 9 9 10 11 10 10 12 15 17 17 15 12 11 10 9 8 8 8
0 0 0 0 1 3 4 4 5 15 37 55 61 55 41 28 19 16 23 35 40 34 24 19 19 18 14 16 21 18 16 17 16 19 21 20 19 22 26 29 27 21 17 16 16 15 14 13 14
0 0 0 0 0 1 2 5 11 25 41 49 47 40 31 25 24 26 34 44 43 33 24 25 29 27 23 24 25 25 25 26 27 30 32 32 31 31 34 37 34 26 22 24 27 27 23 21 22
0 0 0 0 0 1 1 8 22 35 40 37 30 25 24 26 33 39 44 46 42 33 30 36 40 38 33 33 34 34 33 33 35 37 37 37 35 33 34 36 34 30 28 29 32 31 26 23 23
0 0 0 0 1 1 3 11 26 35 34 30 25 24 29 38 46 51 51 49 44 40 42 47 51 48 40 36 38 39 37 35 36 37 35 32 29 28 29 31 32 31 30 29 28 25 20 18 18
0 0 0 0 1 2 3 12 24 28 27 27 28 34 45 55 61 62 60 55 50 47 48 49 49 46 38 32 33 34 32 32 34 32 27 22 20 22 24 25 27 26 24 22 21 18 15 13 13
0 0 0 0 1 1 3 11 21 24 24 28 35 46 58 64 67 67 63 58 53 50 47 42 39 37 33 29 27 26 26 27 28 24 19 15 14 17 20 21 21 19 16 14 14 14 13 11 11
0 0 0 0 0 0 2 8 17 21 22 28 38 50 59 61 61 61 57 53 51 49 46 41 36 34 32 28 25 23 22 23 22 18 14 12 11 11 13 15 15 12 9 7 8 10 10 9 10
0 0 0 0 0 0 2 6 12 15 18 24 34 44 51 50 49 50 49 46 46 47 47 44 39 34 28 23 20 19 18 17 16 14 11 8 5 5 6 8 8 6 5 5 6 6 6 6 7
0 0 0 0 0 0 1 4 9 12 14 21 30 37 40 38 39 43 43 41 42 42 41 38 34 26 19 16 15 14 12 10 10 10 9 4 2 1 2 2 3 3 3 4 4 3 3 3 3
0 0 0 0 0 0 0 2 6 8 11 18 29 34 33 31 32 34 35 33 33 32 29 26 23 17 13 13 14 13 9 7 8 10 9 6 3 1 0 0 1 1 1 1 1 1 1 2 1
0 0 0 0 0 0 0 1 4 5 8 14 23 28 28 26 24 24 23 22 22 20 19 19 17 14 13 13 13 12 10 9 10 11 11 9 6 3 1 0 0 0 0 0 0 0 0 0 0
0 0 0 0 0 0 0 1 3 4 7 10 13 18 20 19 18 16 13 12 13 13 14 17 19 18 16 14 12 10 10 11 11 12 13 12 9 4 1 0 0 0 0 0 0 0 0 0 0
0 0 0 0 0 1 0 1 3 4 6 7 7 10 14 15 13 11 8 8 8 9 12 19 27 29 25 20 15 11 11 11 11 12 13 12 9 5 2 1 0 0 0 0 0 0 0 0 0
0 0 0 0 0 0 0 1 1 2 4 4 4 7 11 12 11 9 7 6 7 8 13 25 37 40 35 29 22 17 13 12 11 11 11 10 8 6 4 2 0 0 0 0 0 0 0 0 0
0 0 0 0 0 0 0 0 0 1 1 1 2 4 7 7 8 8 7 8 8 10 15 28 43 47 40 33 27 23 18 14 11 9 7 5 5 6 4 1 0 0 0 0 0 0 0 0 0
0 0 0 0 0 0 0 0 0 0 0 0 1 2 2 2 3 6 9 11 12 13 18 31 45 47 39 30 27 24 19 13 8 5 3 1 2 3 2 1 0 0 0 0 0 0 0 0 0
0 0 0 1 0 0 0 0 0 0 0 0 1 1 1 0 2 5 9 13 14 14 22 36 46 43 34 26 23 20 14 7 3 2 1 0 0 1 1 0 0 0 1 0 0 0 0 0 0
0 0 0 0 0 0 0 0 1 0 0 0 0 0 0 0 2 4 7 10 12 17 28 40 45 39 28 22 18 14 8 3 1 0 0 0 0 1 1 1 0 0 0 0 0 0 0 0 0
0 0 0 0 0 0 0 0 1 1 0 0 0 0 0 0 1 2 5 9 12 19 28 35 36 31 24 18 14 8 4 2 1 1 0 0 0 1 2 2 1 1 0 0 0 0 0 0 0
0 0 0 0 0 0 0 0 0 1 0 0 0 0 0 0 0 2 6 11 14 15 19 23 24 22 17 13 10 5 2 1 1 1 1 1 1 2 2 3 3 2 0 0 0 0 0 0 0
0 0 0 0 0 0 0 0 0 1 0 0 0 0 0 0 0 2 8 13 13 11 13 16 18 16 12 10 8 5 2 2 1 1 2 2 2 3 3 4 4 2 0 0 0 0 0 0 0
Wind_Speed
10 11 10 8 7 6 7 7 5 7 9 11 11 14 18 15 12 13 13 21 23 19 16 15 14 13 12 12 11 11 11 11 11 11 11 10 9 9 9 8 8 8 8 8 8 8 8 8 7
10 12 10 8 9 4 3 5 4 6 7 8 11 16 19 15 14 15 16 20 22 19 16 15 15 14 13 12 12 12 12 12 11 11 10 10 9 8 8 7 7 7 7 7 7 7 7 7 6
13 14 9 9 11 6 6 3 3 3 5 7 11 14 13 12 13 13 16 19 20 17 16 15 15 14 13 12 12 12 12 12 11 10 10 9 8 7 7 6 6 6 6 6 6 6 6 6 5
10 10 9 11 13 7 4 1 2 3 5 5 13 14 11 8 12 15 17 20 20 18 16 15 15 14 13 12 12 11 11 11 10 10 9 8 7 6 6 5 5 5 5 5 5 5 5 4 4
10 9 12 13 12 7 6 6 3 4 4 3 13 15 12 11 16 17 17 18 18 18 16 15 15 14 12 11 11 10 10 9 9 8 7 6 6 5 5 4 4 4 4 4 4 4 3 3 3
9 10 13 13 10 5 3 4 2 7 5 5 13 15 10 10 14 15 16 16 18 19 17 15 14 13 12 11 10 9 9 8 7 7 6 5 4 4 3 3 3 3 3 3 3 3 3 3 2
11 12 16 18 12 8 4 3 1 4 5 7 11 13 11 11 12 14 14 14 17 19 17 14 13 11 11 10 9 9 8 7 6 6 5 4 4 4 4 4 4 3 3 3 3 3 4 4 4
11 11 17 17 13 7 1 2 1 2 3 5 9 12 13 13 12 13 13 13 16 16 15 14 13 11 10 10 10 9 8 7 6 6 6 6 6 6 6 6 6 5 4 4 4 4 5 6 6
12 12 14 15 10 4 3 3 2 0 3 6 10 15 20 16 14 13 12 12 12 13 11 12 12 10 9 10 10 10 9 8 7 6 7 6 5 5 6 6 6 6 5 5 5 5 6 6 8
9 11 13 11 10 7 3 5 6 4 4 11 16 20 20 16 13 13 13 13 12 11 11 9 8 8 6 6 7 6 6 6 5 3 4 3 2 1 1 5 6 5 6 6 6 7 7 7 5
9 10 11 11 9 8 8 8 7 4 6 11 12 12 16 16 13 12 12 12 11 9 8 10 9 5 4 4 4 2 2 3 2 2 1 1 1 1 1 1 2 2 4 3 3 4 4 3 3
8 9 9 10 10 9 10 7 3 9 11 12 9 8 13 15 13 12 12 12 11 8 7 8 9 6 4 4 2 2 2 2 2 2 3 2 1 1 2 1 1 1 1 1 1 1 2 3 3
9 9 8 9 10 10 10 4 5 11 14 12 10 10 11 12 12 12 12 11 10 8 7 8 7 7 5 3 2 2 3 2 3 2 3 3 2 2 2 1 1 2 1 0 1 1 2 3 4
8 8 9 10 9 9 8 4 4 10 14 14 13 11 10 10 10 10 10 9 9 8 7 7 7 7 5 3 2 1 2 2 3 3 3 3 2 2 2 2 1 2 1 1 2 3 2 3 3
8 10 9 8 9 8 7 1 5 4 10 11 12 11 10 10 10 10 10 8 9 8 7 6 7 6 5 3 2 1 1 3 3 3 3 3 4 3 3 2 1 1 1 1 2 3 3 4 4
11 9 8 8 9 8 6 1 6 9 3 6 9 10 9 8 9 9 10 8 8 8 7 5 6 7 5 3 1 2 2 3 2 2 4 4 3 3 3 3 2 3 3 2 2 2 2 2 3
8 6 7 7 8 6 2 4 4 9 7 6 8 9 9 8 8 9 9 9 8 8 7 6 7 6 5 4 2 3 3 2 1 2 4 3 3 3 3 3 2 3 3 3 4 2 3 3 4
9 6 4 4 4 4 2 8 7 9 10 8 9 10 9 9 9 9 9 9 8 8 7 7 7 6 4 3 2 2 2 2 1 2 4 3 2 3 3 3 3 4 3 3 3 4 3 3 4
10 7 7 7 5 4 2 7 9 9 10 8 9 11 10 9 10 9 9 9 9 8 7 6 6 5 2 1 1 1 1 0 0 2 4 3 2 3 2 3 4 3 3 3 4 4 5 4 4
9 9 7 4 4 3 2 3 4 7 7 5 7 10 11 10 10 9 9 9 10 9 7 7 6 6 3 2 1 1 0 1 1 1 2 2 1 1 3 3 3 4 4 4 4 3 3 4 5
7 8 9 7 3 1 2 2 1 2 3 4 6 10 12 12 11 11 10 10 10 9 8 7 7 6 4 3 1 1 0 2 1 1 1 2 1 1 1 2 3 3 4 4 4 3 4 4 4
7 6 9 9 5 2 2 1 2 6 6 6 7 9 12 12 12 12 12 11 11 10 9 7 7 5 4 3 1 2 2 2 2 1 0 1 1 2 2 2 2 2 3 5 5 4 4 4 4
8 7 8 10 8 4 3 1 4 7 7 9 10 11 12 13 13 13 13 11 10 10 10 8 7 6 4 3 2 2 3 2 2 3 3 2 3 3 3 3 1 1 3 4 4 4 4 4 4
7 5 7 8 6 5 8 5 5 8 11 12 12 12 11 13 13 13 12 10 9 9 8 9 8 6 5 4 3 2 2 2 3 4 4 3 2 2 2 2 1 1 2 3 4 4 5 4 4
7 5 2 2 1 8 10 4 7 9 9 11 13 14 13 13 12 12 11 11 9 8 8 8 9 7 6 5 4 2 1 2 4 5 4 2 2 2 2 2 1 2 3 4 4 4 5 5 5
7 7 5 6 4 3 2 3 9 10 9 9 12 13 13 13 11 11 10 9 9 9 8 8 9 7 6 5 3 2 1 2 3 2 3 3 3 3 2 2 2 3 4 5 4 4 5 5 5
7 6 9 9 9 3 1 4 11 9 10 9 11 12 13 13 13 12 12 10 10 9 8 7 8 6 5 3 3 3 3 3 3 2 3 3 2 4 4 3 4 4 5 5 5 4 5 5 5
7 9 6 6 5 3 4 5 3 8 10 10 10 11 12 12 12 12 10 10 9 8 7 7 7 6 4 3 4 3 3 3 3 3 3 3 3 4 4 5 5 5 5 5 5 5 6 6 6
7 8 6 6 6 6 2 1 6 6 8 10 12 11 11 12 12 11 9 9 9 9 9 7 7 6 5 4 3 1 2 2 2 3 4 4 4 4 4 5 5 5 6 6 5 6 7 7 7
10 9 6 5 6 6 3 1 4 4 6 8 10 11 11 10 10 11 11 10 9 8 9 8 8 7 6 5 4 3 3 3 4 5 4 3 4 4 5 5 5 6 6 6 6 7 7 6 7
Wind_Direction
203 225 230 245 242 242 302 319 33 64 70 66 57 71 74 56 71 95 111 108 111 115 119 116 109 106 106 110 116 120 122 122 119 119 118 117 115 112 109 104 98 91 87 83 80 80 80 79 77
224 230 235 243 248 240 283 297 11 67 88 98 81 79 79 72 81 105 110 113 115 121 126 117 114 110 108 109 113 116 118 120 121 121 122 122 121 119 116 111 105 98 93 89 86 86 86 85 82
244 249 256 248 253 247 189 228 76 85 98 103 89 72 69 83 98 108 118 120 117 117 115 118 119 115 112 112 113 116 118 121 122 123 125 125 125 123 120 117 113 107 102 97 92 95 95 94 89
243 234 241 255 271 295 298 90 59 106 99 120 109 89 81 66 104 118 128 120 117 120 120 120 121 118 117 116 117 119 121 124 126 128 129 131 131 130 127 123 119 115 110 106 104 106 107 107 106
240 255 249 262 277 298 316 334 9 70 66 72 94 97 93 87 108 125 128 123 129 124 121 124 124 122 121 121 122 122 125 128 130 132 134 137 140 141 141 139 132 121 118 119 117 118 124 131 139
248 255 264 267 262 250 259 321 23 76 91 83 102 108 96 111 124 132 130 136 131 124 123 125 127 127 128 129 129 130 132 135 139 142 146 150 154 161 166 166 162 152 148 145 148 150 155 167 188
260 279 281 282 274 249 228 248 166 123 166 144 132 114 128 134 131 135 136 135 127 123 127 137 138 137 138 140 140 142 145 148 154 160 166 173 181 188 193 194 189 181 173 177 188 196 199 202 213
263 282 282 279 274 269 241 305 336 126 158 125 121 127 139 139 142 136 136 131 124 128 136 143 145 148 156 155 156 158 163 166 174 182 188 198 210 214 215 210 198 199 202 202 210 220 221 220 223
257 262 270 281 293 290 50 315 295 42 145 79 65 110 128 138 139 139 138 128 120 125 132 140 143 154 166 163 159 168 176 181 190 196 206 217 233 225 211 217 187 198 212 221 227 234 236 233 232
243 260 275 303 326 333 339 283 265 225 135 91 85 99 121 134 143 146 142 134 126 127 130 130 137 141 154 151 147 176 176 172 198 181 189 215 252 278 163 149 178 200 219 230 233 238 242 239 239
258 272 294 308 315 306 295 277 269 245 70 66 82 115 132 140 145 146 142 137 131 132 131 128 117 114 113 115 144 131 128 146 174 119 129 108 340 341 54 126 169 214 229 237 234 229 244 252 259
270 282 291 297 302 294 284 281 346 70 95 102 122 157 149 146 148 145 140 138 136 136 124 119 115 104 69 57 67 95 103 118 98 84 50 40 23 8 23 17 7 290 243 222 260 237 257 274 276
266 275 280 285 283 274 270 270 82 91 109 124 154 166 151 140 135 133 133 132 131 128 117 97 97 96 85 62 25 57 63 67 90 76 58 19 14 29 21 358 328 298 302 328 320 292 285 277 271
311 311 302 297 293 281 265 232 117 135 133 153 164 155 138 122 117 118 119 122 127 123 114 110 109 105 106 106 85 46 79 94 79 80 77 43 40 37 6 316 307 298 326 348 290 271 261 258 254
301 290 286 290 287 276 264 291 35 124 140 155 147 133 123 122 121 121 123 133 133 129 122 122 126 121 124 123 139 125 102 89 91 103 89 59 45 24 348 313 324 360 323 282 266 277 274 268 263
290 285 284 280 270 251 239 69 353 303 186 155 140 135 131 124 123 125 130 133 131 132 134 147 129 120 116 106 89 75 62 73 91 105 97 72 44 23 341 331 15 3 332 311 287 260 277 301 307
283 274 274 260 255 249 139 137 202 262 258 189 165 146 139 136 132 130 133 131 129 129 129 115 106 121 128 136 134 107 98 83 75 79 83 67 24 18 353 341 356 337 324 315 314 5 356 330 320
304 299 290 261 246 252 156 150 179 225 238 206 173 149 144 148 142 136 132 130 128 125 124 122 121 121 140 143 142 131 128 145 137 104 103 81 22 25 11 318 10 356 326 330 345 339 322 298 283
306 321 320 303 290 291 181 150 174 204 223 206 173 150 153 149 139 138 140 140 136 136 140 143 136 137 151 141 147 120 109 83 126 128 108 91 40 21 336 325 349 325 322 338 328 332 321 308 288
301 312 305 283 260 292 47 106 167 201 219 199 160 150 152 147 147 149 154 153 149 150 151 148 153 157 171 138 116 150 80 286 280 83 126 130 97 1 314 24 339 340 337 311 295 297 297 303 312
308 303 302 293 264 22 58 348 103 242 244 226 175 159 156 159 161 163 167 163 159 162 168 171 166 163 170 157 197 264 176 255 266 87 127 109 56 314 319 322 313 329 315 318 337 315 308 305 306
298 294 303 312 303 286 208 234 225 219 225 213 194 172 166 164 167 172 172 174 172 173 175 167 164 165 161 180 224 266 271 293 320 311 83 86 292 266 267 273 294 315 313 313 310 354 333 312 304
301 312 335 346 343 329 264 193 203 190 213 211 193 183 174 168 173 175 177 177 178 180 177 169 161 161 167 192 229 258 294 325 352 6 354 336 271 242 226 226 229 284 288 299 320 320 313 309 305
298 322 9 7 4 305 248 189 181 177 197 193 180 181 181 173 174 176 177 173 179 181 173 168 160 165 175 196 224 231 279 318 323 318 299 289 282 264 222 216 170 262 286 306 308 300 291 285 293
292 294 339 348 223 247 247 193 140 158 166 165 168 174 176 174 173 174 176 173 178 180 174 165 159 164 176 193 210 221 261 294 269 260 279 300 309 316 21 27 29 307 298 288 279 279 276 279 281
268 280 281 286 274 231 251 127 127 127 128 143 156 164 170 174 173 173 177 178 179 179 172 162 155 162 177 192 186 175 230 268 286 359 355 326 312 317 343 323 284 272 272 278 281 281 274 269 266
287 286 292 294 310 340 34 103 119 130 138 148 155 163 172 176 176 179 180 181 179 175 162 156 148 156 174 182 158 188 214 243 295 321 281 281 306 304 328 325 298 278 270 266 267 264 269 274 271
271 295 302 305 320 326 48 8 143 160 162 163 166 169 173 177 179 179 176 176 165 153 141 139 140 149 162 182 195 212 191 215 237 255 278 292 289 288 289 281 284 283 278 270 260 261 261 259 258
272 262 282 304 313 322 21 225 198 178 172 169 174 177 179 182 178 172 164 152 141 142 145 144 145 155 173 197 193 210 227 254 265 261 260 263 267 274 275 275 275 276 275 271 264 262 264 262 261
313 294 273 275 297 301 318 119 130 153 168 162 171 174 177 178 174 164 152 143 149 158 159 160 166 173 182 190 183 197 212 230 245 261 268 273 271 269 272 271 273 275 277 274 271 269 273 270 267